Regional Weather Roundup
Issued by NWS

Home | Current Version | Previous Version | Text Only | Print | Product List | Glossary Off
Versions: 1 2 3 4 5 6 7 8 9 10 11 12 13 14 15 16 17 18 19 20 21 22 23 24 25 26 27 28 29 30 31 32 33 34 35 36 37 38 39 40 41 42 43 44 45 46 47 48 49 50

000
ASUS43 KMPX 302010
RWRMN
WEATHER ROUNDUP FOR MINNESOTA
NATIONAL WEATHER SERVICE TWIN CITIES/CHANHASSEN MN
300 PM CDT SUN APR 30 2017


NOTE: "FAIR" INDICATES FEW OR NO CLOUDS BELOW 12,000 FEET WITH NO
SIGNIFICANT WEATHER AND/OR OBSTRUCTIONS TO VISIBILITY. N/A MEANS
CURRENT SKY AND/OR WEATHER CONDITIONS ARE NOT AVAILABLE.

MNZ060>063-068>070-302100-
   Twin Cities Metro

CITY           SKY/WX    TMP DP  RH WIND       PRES   REMARKS
TWIN CITIES    CLOUDY    45  34  65 NE23G30   29.88F
ST PAUL        CLOUDY    45  36  70 NE21      29.90F
CRYSTAL        CLOUDY    44  32  62 NE16G29   29.89F
BLAINE         CLOUDY    46  36  66 NE17G28   29.90F
LAKEVILLE      CLOUDY    43  36  75 NE17G28   29.85F
EDEN PRAIRIE   CLOUDY    45  35  68 NE14G24   29.86F
SOUTH ST PAUL  CLOUDY    46  35  65 NE13G24   29.88F
LAKE ELMO      CLOUDY    45  36  70 NE16G23   29.90F
$$
MNZ001>005-007-008-013>017-022>024-027-028-302100-
   Northwest Minnesota

CITY           SKY/WX    TMP DP  RH WIND       PRES   REMARKS
BEMIDJI        MOSUNNY   56  22  27 E15G21    29.97F
HALLOCK        SUNNY     63  19  19 E5        29.99F
ROSEAU         SUNNY     61  27  27 NE10G17   30.01F
WARROAD        SUNNY     52  30  43 NE15      30.03F
THIEF RVR FALL SUNNY     58  24  27 E12G23    29.99F
CROOKSTON      SUNNY     61  23  23 E12G18    29.97F
FOSSTON        SUNNY     61  19  20 NE10      29.95F
DETROIT LAKES  PTSUNNY   55  21  26 E14G24    29.94F
MOORHEAD       MOSUNNY   61  19  20 E16       29.92F
PARK RAPIDS    CLOUDY    56  19  23 E20G25    29.94F
MAHNOMEN       FAIR      58  22  25 E10G21    29.93F
$$
MNZ006-009>011-018-025>026-302100-
   North Central Minnesota

CITY           SKY/WX    TMP DP  RH WIND       PRES   REMARKS
BAUDETTE       SUNNY     59  20  22 E15       30.02F
FLAG ISLAND    SUNNY     50  21  32 S3        30.04F
INTL FALLS     MOSUNNY   55  22  27 E8        30.04F
WASKISH        SUNNY     59  27  29 E10G20    29.99F
BIG FORK       CLOUDY    55  21  26 E10G16    30.02F
LONGVILLE      CLOUDY    54  21  28 NE10G16   29.98F
GRAND RAPIDS   CLOUDY    53  21  28 NE9       30.02F
CRANE LAKE     MOSUNNY   55  18  22 CALM      30.06F
ORR            CLOUDY    55  12  18 E7        30.02F
COOK           CLOUDY    54  19  26 E10       30.05F
WALKER         FAIR      52  24  33 E9        29.98F
$$
MNZ012-019>021-037-302100-
   Northeast Minnesota

CITY           SKY/WX    TMP DP  RH WIND       PRES   REMARKS
DULUTH         CLOUDY    47  26  44 E21G28    30.03F
ELY            CLOUDY    52  16  24 E10       30.05F
HIBBING        CLOUDY    51  21  30 E12G22    30.02F
EVELETH        MOSUNNY   53   9  17 E13       30.04F
DULUTH HARBOR  CLOUDY    39  36  87 NE22      30.06F
TWO HARBORS    CLOUDY    48  30  49 E23G29    30.04F
SILVER BAY     CLOUDY    46  28  49 NE15      30.05F
GRAND MARAIS     N/A     43  33  68 NE9       30.10F
G MARAIS ARPRT MOSUNNY   46  18  31 NE16      30.08F
$$
MNZ029>031-032-039>041-046>048-054>057-064-302100-
   West Central Minnesota

CITY           SKY/WX    TMP DP  RH WIND       PRES   REMARKS
FERGUS FALLS   CLOUDY    54  23  30 E14G26    29.91F
MORRIS         CLOUDY    54  27  35 E17G25    29.89F
ALEXANDRIA     CLOUDY    50  26  39 E25G35    29.90F
ELBOW LAKE     FAIR      51  24  35 NE16G29   29.91F
WADENA         CLOUDY    52  25  35 E16G26    29.94F
GLENWOOD       CLOUDY    50  30  46 NE25G31   29.91F
APPLETON       CLOUDY    52  27  37 E23       29.87F
BENSON         CLOUDY    52  25  35 E17G26    29.91F
ORTONVILLE     CLOUDY    50  27  40 NE14G23   29.89F
MADISON        DRIZZLE   50  34  53 E21       29.88F
WILLMAR        FAIR      46  37  71 NE15G26   29.88F
$$
MNZ033>034-036-042>043-049>051-058-059-302100-
   Central Minnesota

CITY           SKY/WX    TMP DP  RH WIND       PRES   REMARKS
ST CLOUD       CLOUDY    48  31  51 NE16G28   29.91F
SAUK CENTRE    MOCLDY    47  31  54 NE22G29   29.91F
PAYNESVILLE    CLOUDY    47  31  54 NE20G28   29.90F
AITKIN         CLOUDY    54  19  26 E12G21    29.96F
PINE RIVER     CLOUDY    52  28  40 E20       30.00F
BRAINERD       CLOUDY    51  24  34 E15G25    29.96F
STAPLES        CLOUDY    48  19  32 NE12G25   29.95F
LONG PRAIRIE   CLOUDY    46  28  49 NE14G31   29.92F
LITTLE FALLS   CLOUDY    48  27  43 E13G20    29.94F
LITCHFIELD     CLOUDY    46  36  66 NE22G28   29.89F
BUFFALO        CLOUDY    44  35  70 NE17G28   29.90F
MAPLE LAKE     CLOUDY    45  34  66 NE15G22   29.90F
HUTCHINSON     CLOUDY    44  36  73 NE20G33   29.87F
$$
MNZ037-044-045-052-053-302100-
   East Central Minnesota

CITY           SKY/WX    TMP DP  RH WIND       PRES   REMARKS
PRINCETON      CLOUDY    48  30  49 NE12G26   29.92F
MORA           PTSUNNY   45  34  65 NE9G20    29.97F
CAMBRIDGE      CLOUDY    48  34  57 NE17G25   29.91F
RUSH CITY      DRIZZLE   46  32  57 NE15G23   29.94F
MOOSE LAKE     CLOUDY    43  28  56 NE15      29.99F
HINCKLEY       CLOUDY    45  34  65 N15       29.97F
CLOQUET        CLOUDY    45  27  49 E9G20     30.02F
MCGREGOR       PTSUNNY   50  27  40 NE15G23   29.99F
$$
MNZ071>073-080-081-089-090-097-098-302100-
   Southwest Minnesota

CITY           SKY/WX    TMP DP  RH WIND       PRES   REMARKS
MONTEVIDEO     CLOUDY    45  37  76 E26       29.87F
GRANITE FALLS  CLOUDY    46  37  71 NE20G29   29.88S
CANBY          DRIZZLE   45  37  72 NE21G26   29.88F
MARSHALL       LGT RAIN  42  37  82 NE24      29.83F
REDWOOD FALLS  CLOUDY    44  33  65 NE14G22   29.85F
OLIVIA         CLOUDY    43  34  70 NE18G25   29.84F
PIPESTONE      DRIZZLE   41  34  75 NE24G32   29.78F
WINDOM         DRIZZLE   39  37  93 NE20G26   29.78F
WORTHINGTON    MIX PCPN  37  35  92 NE29G36   29.75F
JACKSON        CLOUDY    37  37 100 NE28      29.76F
TRACY          LGT RAIN  41  38  87 NE20G26   29.82F
SLAYTON        CLOUDY    37  34  88 NE22G28   29.80F
$$
MNZ065>067-074>077-082>085-091>093-302100-
   South Central Minnesota

CITY           SKY/WX    TMP DP  RH WIND       PRES   REMARKS
MANKATO        CLOUDY    43  36  76 NE20G29   29.82F
NEW ULM        CLOUDY    41  36  81 NE18G25   29.82F
ST JAMES       CLOUDY    39  37  93 N20       29.81F
FAIRMONT       CLOUDY    41  38  89 NE20G26   29.78F
GLENCOE        CLOUDY    44  37  78 NE15G24   29.85F
FARIBAULT      CLOUDY    45  36  70 NE16G25   29.83F
OWATONNA       CLOUDY    45  34  65 NE21G33   29.81F
WASECA         CLOUDY    43  36  75 NE21G31   29.79F
ALBERT LEA     CLOUDY    43  34  70 NE24G30   29.76F
$$
MNZ078>079-086>088-094>096-302100-
   Southeast Minnesota

CITY           SKY/WX    TMP DP  RH WIND       PRES   REMARKS
ROCHESTER      CLOUDY    43  36  76 NE23G30   29.80F
RED WING       CLOUDY    46  34  61 NE10G24   29.85F
STANTON        CLOUDY    46  36  67 NE20G25   29.82F
DODGE CENTER   CLOUDY    43  36  75 NE21      29.79F
WINONA         CLOUDY    46  37  71 E13G18    29.85F
AUSTIN         CLOUDY    45  36  70 E21G35    29.77S
PRESTON        CLOUDY    42  36  78 NE17G28   29.79F
$$
ABBREVIATIONS USED IN REMARKS
   TC - TEMPERATURES IN CELSIUS
  WCI - WIND CHILL INDEX
   HX - HEAT INDEX
  VSB - VISIBILITY
$$




USA.gov is the U.S. government's official web portal to all federal, state and local government web resources and services.